{"data":{"norad_id":64739,"intl_designator":"2025-144R","name":"STARLINK-34471","alt_names":[],"object_type":"PAYLOAD","status":"ACTIVE","operator":null,"country":"US","launch_date":"2025-07-02","launch_site_code":"AFETR","launch_vehicle":null,"mission":null,"orbit_class":"UNKNOWN","rcs_meters":null,"size_class":null,"mass_kg":null,"dimensions":null,"purposes":["comms"],"wikipedia_slug":null,"has_3d_model":false,"image_url":null,"decayed_at":null,"tle_current":{"epoch":"2026-09-20T13:10:48.977472Z","epoch_age_seconds":123699,"freshness":"FRESH","line1":"1 64739U 25144R   26263.54917798  .00023516  00000+0  70480-3 0  9992","line2":"2 64739  53.1593 355.3776 0000848  98.9426 261.1673 15.34406079 69494","mean_motion":15.34406079,"eccentricity":8.48e-5,"inclination_deg":53.1593,"raan_deg":355.3776,"arg_perigee_deg":98.9426,"mean_anomaly_deg":261.1673,"bstar":0.0007048,"rev_number":6949,"period_min":93.847386275899,"perigee_km":462.10507047746,"apogee_km":463.26527391787,"semimajor_km":6840.8221721977,"source":"CELESTRAK","updated_at":"2026-09-21T09:00:35.411992Z"}}}